Location: Urbino
(43.7170°N, 12.6330°E)
Time: 10:20:35
(UTC+02:00)

ISS - Visible Passes

Search period start: 08 May 2021 00:00
Search period end: 18 May 2021 00:00
Orbit: 418 x 421 km, 51.6° (Epoch: 08 May)

Date Brightness Start Highest point End Pass type
(mag) Time Alt. Az. Time Alt. Az. Time Alt. Az.
08 May -1.9 02:49:24 28° NNW 02:49:24 28° NNW 02:52:16 10° NE visible
08 May -1.3 04:24:09 10° NW 04:26:48 21° N 04:29:28 10° NE visible
09 May -1.2 02:03:27 21° NNE 02:03:27 21° NNE 02:04:52 10° NE visible
09 May -1.2 03:36:33 10° NW 03:39:11 21° N 03:41:49 10° NE visible
09 May -1.8 05:13:37 10° NW 05:16:42 31° NNE 05:19:46 10° E visible
10 May -0.5 01:17:27 10° NE 01:17:27 10° NE 01:17:30 10° NE visible
10 May -1.4 02:50:22 18° NW 02:51:33 22° N 02:54:15 10° NE visible
10 May -1.5 04:26:13 10° NW 04:29:07 26° NNE 04:32:02 10° ENE visible
11 May -1.4 02:04:21 23° N 02:04:21 23° N 02:06:46 10° NE visible
11 May -1.3 03:38:46 10° NW 03:41:31 23° N 03:44:17 10° ENE visible
11 May -3.1 05:15:27 10° NW 05:18:49 61° NNE 05:22:10 10° ESE visible
12 May -0.9 01:18:16 17° NNE 01:18:16 17° NNE 01:19:20 10° NE visible
12 May -1.1 02:51:15 10° NW 02:53:53 21° N 02:56:33 10° NE visible
12 May -2.4 04:28:04 10° NW 04:31:19 42° NNE 04:34:33 10° E visible
13 May -1.1 02:05:02 17° NNW 02:06:16 21° N 02:08:54 10° NE visible
13 May -1.8 03:40:42 10° NW 03:43:46 32° NNE 03:46:51 10° E visible
14 May -1.2 01:18:39 22° N 01:18:39 22° N 01:21:19 10° NE visible
14 May -1.5 02:53:17 10° NW 02:56:12 26° NNE 02:59:06 10° ENE visible
14 May -3.8 04:29:56 10° WNW 04:33:20 87° SW 04:36:43 10° SE visible
14 May -2.1 21:15:17 10° S 21:17:21 15° SE 21:19:26 10° E visible
14 May -3.7 22:50:25 10° WSW 22:53:47 75° NNW 22:55:40 24° NE visible
15 May -1.4 00:28:11 10° WNW 00:31:01 24° N 00:33:49 10° NE visible
15 May -1.2 02:05:50 10° NW 02:08:35 23° N 02:11:20 10° ENE visible
15 May -3.2 03:42:32 10° NW 03:45:52 61° NNE 03:49:13 10° ESE visible
15 May -3.9 22:03:01 10° SW 22:06:21 69° SE 22:09:43 10° ENE visible
15 May -1.7 23:40:26 10° WNW 23:43:24 28° NNW 23:46:24 10° NE visible
16 May -1.1 01:18:18 10° NW 01:20:58 21° N 01:23:37 10° NE visible
16 May -2.5 02:55:08 10° NW 02:58:23 42° NNE 03:01:37 10° E visible
16 May -3.0 04:32:05 10° WNW 04:35:08 32° SW 04:38:10 10° SSE visible
16 May -3.4 21:15:48 10° SSW 21:18:59 41° SE 21:22:11 10° ENE visible
16 May -2.1 22:52:41 10° W 22:55:50 36° NNW 22:59:00 10° NE visible
17 May -1.1 00:30:41 10° NW 00:33:19 21° N 00:35:57 10° NE visible
17 May -1.9 02:07:45 10° NW 02:10:50 32° NNE 02:13:54 10° E visible
17 May -3.7 03:45:05 14° WNW 03:47:47 52° SW 03:51:04 10° SE visible
17 May -2.8 22:05:02 10° WSW 22:08:18 49° NNW 22:11:36 10° NE visible
17 May -1.1 23:42:59 10° WNW 23:45:41 21° N 23:48:22 10° NE visible
